Location: Lafig�re
(44.4503°N, 4.0357°E)
Time: 16:09:11
(UTC+00:00)

BlueWalker 3 - Pass Details

Date: 04 December 2022
Orbit: 499 x 517 km, 53.2° (Epoch: 01 February)

Event Time Altitude Azimuth Distance (km) Brightness Sun altitude
Rises 17:02:17 0° 294° (WNW) 2,630 6.3 -10.0°
Reaches altitude 10° 17:04:52 10° 309° (NW) 1,739 5.1 -10.5°
Maximum altitude 17:08:01 22° 2° (N) 1,147 3.5 -11.0°
Enters shadow 17:10:12 15° 45° (NE) 1,464 3.7 -11.4°
